User: anonymous   Login
Location: ??????
(55.6130°N, 37.7882°E)
Time: 07:43:27
(UTC+00:00)
Language:

Cosmos 1980 - Orbit

View from above orbital plane
View from above orbital plane
View from above satellite
View from above satellite

Ground track
Ground track

The orbit data is extracted from the following two-line orbital elements,

1 19649U 88102A   24174.19524862 -.00000162  00000-0 -59051-4 0  9998
2 19649  71.0012  87.8670 0005197 354.1817   5.9244 14.14960480836928
Epoch (UTC): 22 June 2024 04:41:09
Eccentricity: 0.0005197
inclination: 71.0012°
perigee height: 838 km
apogee height: 846 km
right ascension of ascending node: 87.8670°
argument of perigee: 354.1817°
revolutions per day: 14.14960480
mean anomaly at epoch: 5.9244°
orbit number at epoch: 83692

The dashed part of the orbit path shows where the satellite is in the earth's shadow,  

DLR